GAOFEN 14

导读

高分十四号(GAOFEN 14)是中国于2020年12月6日在西昌卫星发射中心,由长征三号乙运载火箭成功发射入轨的光学立体测绘卫星,属于中国高分辨率对地观测系统国家科技重大专项项目。它可获取全球高精度立体影像,生产各类地形测绘产品,能够为“一带一路”建设等提供可靠的基础地理信息支撑。

基本信息
目录编号:
47231
目录名称:
GAOFEN 14
国际标识:
2020-092A
轨道中心:
EARTH
卫星名称:
GAOFEN 14
卫星全名:
--
卫星状态:
在轨 (已飞行2098 天)
发射日期:
2020-12-06 UTC
国别 :
中国 (CN)
星等 :
--
轨道信息
数据来源 国际轨道数据
星历时间: 2026-09-04T15:29:49+0800
9小时前
查看轨道信息
半长轴: 6866.939km
偏心率: 0.0004374
轨道倾角: 97.465°
近地点辐角 221.603°
升交点赤经 317.435°
平近点角 138.487°
近地点: 485.798km
远地点: 491.806km
周期: 94.385分钟
每日圈数: 15.256609
详细信息
使用方式:
暂无
2D轨道图
3D轨道图
轨道高度分析图
轨道倾角分析图
轨道综合分析图
查看轨道综合分析图
交会数据列表
事件ID 空间交会对象 最接近时刻(TCA) 交会距离 交会风险概率(CRP) 交会风险指数(CRI) 操作
CDM_260904-142404-723105-337022
KHAYYAM (53370)
2026-09-04T
14:24:06+0000
2.458 km
极远距离
1.827801E-6 低风险 0.4
CDM_260905-165704-723106-047521
2026-09-05T
16:57:00+0000
2.518 km
极远距离
3.72449E-7 极低风险 0.26